GW4605 Weather Reports


Display with metric or nautical units.
time (UTC)temp
F
wind
direction
speed
MPH
gust
MPH
rain 1hr
in
rain 24hr
in
rain mn
in
humidity
%
barometer
mb
20260508063031 34 45 0.0 0.0 0.00 0.00 0.00 97 1016.8
20260508062528 34 45 0.0 0.0 0.00 0.00 0.00 97 1016.6
20260508062024 34 45 0.0 0.0 0.00 0.00 0.00 97 1016.7
20260508061522 35 45 0.0 0.0 0.00 0.00 0.00 97 1016.8
20260508061019 35 45 0.0 0.0 0.00 0.00 0.00 97 1016.7
20260508060516 34 45 0.0 0.0 0.00 0.00 0.00 97 1016.8
20260508060014 35 45 0.0 0.0 0.00 0.00 0.00 97 1016.7
20260508055509 35 45 0.0 0.0 0.00 0.00 0.00 97 1016.8
20260508055005 35 45 0.0 0.0 0.00 0.00 0.00 97 1016.7
20260508054502 35 45 0.0 0.0 0.00 0.00 0.00 97 1017.0
20260508053959 35 45 0.0 0.0 0.00 0.00 0.00 97 1016.8
20260508053456 35 45 0.0 0.0 0.00 0.00 0.00 97 1017.0
20260508052954 36 45 0.0 0.0 0.00 0.00 0.00 97 1016.8
20260508052451 36 45 0.0 0.0 0.00 0.00 0.00 97 1016.9
20260508051948 36 45 0.0 0.0 0.00 0.00 0.00 97 1016.8
20260508051443 36 45 0.0 0.0 0.00 0.00 0.00 97 1016.9
20260508050939 36 45 0.0 0.0 0.00 0.00 0.00 96 1016.9
20260508050436 37 45 0.0 0.0 0.00 0.00 0.00 96 1016.7
20260508045933 36 45 0.0 0.0 0.00 0.00 0.00 96 1016.8
20260508045431 36 45 0.0 0.0 0.00 0.00 0.00 96 1016.8
20260508044928 36 45 0.0 0.0 0.00 0.00 0.00 96 1016.8
20260508044425 37 45 0.0 0.0 0.00 0.00 0.00 96 1016.9
20260508043920 36 45 0.0 0.0 0.00 0.00 0.00 95 1017.0
20260508043418 37 45 0.0 0.0 0.00 0.00 0.00 95 1017.0
20260508042913 37 45 0.0 0.0 0.00 0.00 0.00 95 1016.9
20260508042406 37 45 0.0 0.0 0.00 0.00 0.00 95 1016.8
20260508041903 37 45 0.0 0.0 0.00 0.00 0.00 95 1016.8
20260508041359 37 45 0.0 0.0 0.00 0.00 0.00 95 1016.7
20260508040855 38 45 0.0 0.0 0.00 0.00 0.00 95 1016.7
20260508040353 38 45 0.0 0.0 0.00 0.00 0.00 95 1016.6
20260508035850 38 45 0.0 0.0 0.00 0.00 0.00 94 1016.9
20260508035347 38 45 0.0 0.0 0.00 0.00 0.00 94 1016.5
20260508034844 38 45 0.0 0.0 0.00 0.00 0.00 94 1016.5
20260508034341 38 45 0.0 0.0 0.00 0.00 0.00 93 1016.4
20260508033838 38 45 0.0 0.0 0.00 0.00 0.00 93 1016.5
20260508033336 39 45 0.0 0.0 0.00 0.00 0.00 93 1016.5
20260508032833 39 45 0.0 0.0 0.00 0.00 0.00 93 1016.6
20260508032331 39 44 0.0 0.0 0.00 0.00 0.00 92 1016.5
20260508031827 40 44 0.0 1.0 0.00 0.00 0.00 92 1016.4
20260508031324 39 48 0.0 0.0 0.00 0.00 0.00 91 1016.5
20260508030820 39 48 0.0 0.0 0.00 0.00 0.00 91 1016.5
20260508030318 39 48 0.0 0.0 0.00 0.00 0.00 90 1016.4
20260508025814 40 48 0.0 0.0 0.00 0.00 0.00 89 1016.4
20260508025312 40 48 0.0 0.0 0.00 0.00 0.00 89 1016.4
20260508024808 41 48 0.0 0.0 0.00 0.00 0.00 88 1016.5
20260508024304 41 48 0.0 0.0 0.00 0.00 0.00 88 1016.3
20260508023802 41 48 0.0 0.0 0.00 0.00 0.00 87 1016.4
20260508023258 42 48 0.0 0.0 0.00 0.00 0.00 86 1016.3
20260508022754 42 48 0.0 0.0 0.00 0.00 0.00 84 1016.4
20260508022251 42 48 0.0 0.0 0.00 0.00 0.00 84 1016.2
20260508021748 43 48 0.0 0.0 0.00 0.00 0.00 83 1016.0
20260508021243 43 48 0.0 0.0 0.00 0.00 0.00 82 1016.0
20260508020740 43 48 0.0 0.0 0.00 0.00 0.00 80 1015.8
20260508020238 44 48 0.0 0.0 0.00 0.00 0.00 80 1016.0
20260508015735 44 48 0.0 1.0 0.00 0.00 0.00 79 1015.8
20260508015232 44 45 0.0 0.0 0.00 0.00 0.00 75 1015.9
20260508014729 45 45 0.0 0.0 0.00 0.00 0.00 76 1015.8
20260508014226 45 45 0.0 0.0 0.00 0.00 0.00 74 1015.9
20260508013721 46 45 0.0 0.0 0.00 0.00 0.00 73 1015.9
20260508013218 46 45 0.0 0.0 0.00 0.00 0.00 71 1015.9
20260508012716 46 45 0.0 0.0 0.00 0.00 0.00 67 1015.5
20260508012212 47 45 0.0 0.0 0.00 0.00 0.00 68 1015.4
20260508011711 48 45 0.0 0.0 0.00 0.00 0.00 65 1015.3
20260508011208 49 45 0.0 0.0 0.00 0.00 0.00 60 1015.3
20260508010704 50 45 0.0 1.0 0.00 0.00 0.00 61 1015.4
20260508010202 51 42 0.0 0.0 0.00 0.00 0.00 60 1015.3
20260508005659 51 52 0.0 0.0 0.00 0.00 0.00 55 1015.2
20260508005156 52 40 0.0 0.0 0.00 0.00 0.00 52 1015.2
20260508004651 53 70 0.0 2.0 0.00 0.00 0.00 51 1015.2
20260508004148 53 41 1.0 1.0 0.00 0.00 0.00 50 1015.0
20260508003645 54 37 2.0 2.0 0.00 0.00 0.00 48 1014.9
20260508003142 54 59 1.0 3.0 0.00 0.00 0.00 47 1014.8
20260508002638 54 64 3.0 6.0 0.00 0.00 0.00 46 1015.0
20260508002137 55 46 2.0 3.0 0.00 0.00 0.00 46 1015.0
20260508001631 55 49 5.0 6.0 0.00 0.00 0.00 43 1014.9
20260508001128 55 39 3.0 3.0 0.00 0.00 0.00 43 1014.7
20260508000623 56 57 3.0 6.0 0.00 0.00 0.00 43 1014.7
20260508000121 57 47 4.0 9.0 0.00 0.00 0.00 40 1014.5
20260507235618 57 86 3.0 4.0 0.00 0.00 0.00 38 1014.4
20260507235115 58 16 5.0 13.0 0.00 0.00 0.00 40 1014.4
20260507234612 58 74 5.0 6.0 0.00 0.00 0.00 38 1014.3
20260507234108 58 120 6.0 11.0 0.00 0.00 0.00 36 1014.4
20260507233605 59 74 7.0 9.0 0.00 0.00 0.00 38 1014.5
20260507233104 59 65 5.0 7.0 0.00 0.00 0.00 36 1014.1
20260507232600 59 59 4.0 8.0 0.00 0.00 0.00 38 1014.3
20260507232057 59 49 4.0 9.0 0.00 0.00 0.00 38 1013.9
20260507231553 60 53 1.0 9.0 0.00 0.00 0.00 39 1014.0
20260507231051 60 40 9.0 11.0 0.00 0.00 0.00 36 1013.9
20260507230547 60 45 6.0 10.0 0.00 0.00 0.00 35 1013.8
20260507230044 60 63 5.0 11.0 0.00 0.00 0.00 37 1013.8
20260507225538 60 96 7.0 10.0 0.00 0.00 0.00 37 1013.9
20260507225035 61 62 8.0 9.0 0.00 0.00 0.00 36 1013.6
20260507224531 61 68 7.0 8.0 0.00 0.00 0.00 36 1013.7
20260507224028 61 46 4.0 8.0 0.00 0.00 0.00 40 1013.5
20260507223524 63 69 5.0 9.0 0.00 0.00 0.00 37 1013.5
20260507223021 62 59 3.0 6.0 0.00 0.00 0.00 34 1013.3
20260507222518 62 42 6.0 8.0 0.00 0.00 0.00 35 1013.5
20260507222014 62 86 6.0 13.0 0.00 0.00 0.00 36 1013.3
20260507221511 62 87 2.0 10.0 0.00 0.00 0.00 38 1013.4
20260507221008 63 38 8.0 9.0 0.00 0.00 0.00 36 1013.5
20260507220505 62 52 7.0 9.0 0.00 0.00 0.00 35 1013.5
20260507220002 61 69 7.0 11.0 0.00 0.00 0.00 37 1013.3
20260507215458 60 65 3.0 11.0 0.00 0.00 0.00 36 1013.2
20260507214956 61 55 5.0 9.0 0.00 0.00 0.00 36 1013.3
20260507214453 63 47 6.0 8.0 0.00 0.00 0.00 34 1013.0
20260507213949 63 55 9.0 10.0 0.00 0.00 0.00 36 1013.1
20260507213446 63 44 7.0 14.0 0.00 0.00 0.00 36 1012.9
20260507212943 62 58 9.0 11.0 0.00 0.00 0.00 37 1013.0
20260507212438 63 0 4.0 4.0 0.00 0.00 0.00 36 1013.1
20260507211936 62 124 6.0 9.0 0.00 0.00 0.00 34 1012.7
20260507211432 63 38 11.0 16.0 0.00 0.00 0.00 32 1012.8
20260507210929 62 36 7.0 13.0 0.00 0.00 0.00 38 1012.8
20260507210426 61 75 8.0 10.0 0.00 0.00 0.00 35 1012.8
20260507205923 63 356 3.0 10.0 0.00 0.00 0.00 39 1012.8
20260507205420 64 39 7.0 9.0 0.00 0.00 0.00 36 1012.5
20260507204916 63 96 5.0 10.0 0.00 0.00 0.00 36 1012.6
20260507204412 64 23 3.0 8.0 0.00 0.00 0.00 37 1012.6
20260507203910 64 62 6.0 9.0 0.00 0.00 0.00 33 1012.5
20260507203408 63 102 4.0 11.0 0.00 0.00 0.00 40 1012.5
20260507202904 63 97 9.0 13.0 0.00 0.00 0.00 37 1012.6
20260507202400 63 31 4.0 9.0 0.00 0.00 0.00 36 1012.6
20260507201856 63 58 7.0 9.0 0.00 0.00 0.00 37 1012.6
20260507201351 62 41 11.0 14.0 0.00 0.00 0.00 38 1012.7
20260507200848 62 68 5.0 8.0 0.00 0.00 0.00 38 1012.8
20260507200344 63 50 8.0 10.0 0.00 0.00 0.00 41 1012.6
20260507195840 63 33 6.0 8.0 0.00 0.00 0.00 36 1012.8
20260507195338 62 94 3.0 4.0 0.00 0.00 0.00 39 1012.9
20260507194835 61 41 4.0 8.0 0.00 0.00 0.00 43 1013.0
20260507194331 62 40 6.0 11.0 0.00 0.00 0.00 41 1013.0
20260507193828 61 63 10.0 14.0 0.00 0.00 0.00 39 1013.2
20260507193325 63 82 2.0 9.0 0.00 0.00 0.00 38 1013.4
20260507192820 63 38 5.0 9.0 0.00 0.00 0.00 42 1013.1
20260507192318 64 32 3.0 7.0 0.00 0.00 0.00 42 1013.3
20260507191814 62 40 7.0 9.0 0.00 0.00 0.00 43 1013.8
20260507191310 60 20 2.0 4.0 0.00 0.00 0.00 44 1013.4
20260507190808 60 94 7.0 9.0 0.00 0.00 0.00 39 1013.5
20260507190306 60 26 7.0 9.0 0.00 0.00 0.00 42 1013.4
20260507185804 62 71 8.0 10.0 0.00 0.00 0.00 41 1013.5
20260507185300 60 4 3.0 7.0 0.00 0.00 0.00 43 1013.6
20260507184758 60 48 4.0 7.0 0.00 0.00 0.00 46 1013.6
20260507184256 60 57 4.0 8.0 0.00 0.00 0.00 39 1013.7
20260507183752 61 77 6.0 10.0 0.00 0.00 0.00 42 1013.7
20260507183250 60 88 8.0 13.0 0.00 0.00 0.00 43 1013.5
20260507182747 61 94 1.0 8.0 0.00 0.00 0.00 40 1013.7
20260507182242 60 83 5.0 8.0 0.00 0.00 0.00 45 1013.6
20260507181739 61 18 6.0 8.0 0.00 0.00 0.00 43 1013.6
20260507181235 61 54 4.0 7.0 0.00 0.00 0.00 52 1013.6
20260507180732 59 72 5.0 10.0 0.00 0.00 0.00 48 1013.7
20260507180229 62 55 2.0 7.0 0.00 0.00 0.00 43 1013.7
20260507175724 62 121 2.0 6.0 0.00 0.00 0.00 44 1013.6
20260507175221 61 34 4.0 7.0 0.00 0.00 0.00 41 1013.9
20260507174719 62 26 5.0 15.0 0.00 0.00 0.00 41 1013.8
20260507174217 60 34 2.0 6.0 0.00 0.00 0.00 42 1013.9
20260507173714 60 32 4.0 7.0 0.00 0.00 0.00 43 1013.9
20260507173211 61 1 3.0 9.0 0.00 0.00 0.00 41 1014.0
20260507172708 61 45 5.0 10.0 0.00 0.00 0.00 42 1014.1
20260507172204 61 121 2.0 7.0 0.00 0.00 0.00 44 1014.1
20260507171658 60 102 2.0 4.0 0.00 0.00 0.00 54 1014.0
20260507171155 58 51 4.0 9.0 0.00 0.00 0.00 50 1014.4
20260507170653 59 32 5.0 8.0 0.00 0.00 0.00 46 1014.6
20260507170150 60 76 3.0 7.0 0.00 0.00 0.00 45 1014.4
20260507165645 60 53 4.0 6.0 0.00 0.00 0.00 47 1014.3
20260507165142 60 79 5.0 7.0 0.00 0.00 0.00 52 1014.7
20260507164637 59 47 5.0 10.0 0.00 0.00 0.00 53 1014.6
20260507164135 60 306 3.0 10.0 0.00 0.00 0.00 54 1014.7
20260507163632 60 96 0.0 4.0 0.00 0.00 0.00 50 1014.6
20260507163130 58 119 4.0 6.0 0.00 0.00 0.00 49 1014.7
20260507162626 59 48 5.0 8.0 0.00 0.00 0.00 51 1014.7
20260507162122 59 221 3.0 4.0 0.00 0.00 0.00 51 1014.7
20260507161618 60 57 3.0 4.0 0.00 0.00 0.00 49 1014.7
20260507161115 59 36 3.0 8.0 0.00 0.00 0.00 50 1014.8
20260507160611 58 74 6.0 9.0 0.00 0.00 0.00 52 1014.9
20260507160108 60 105 0.0 2.0 0.00 0.00 0.00 47 1014.8
20260507155603 59 244 2.0 2.0 0.00 0.00 0.00 55 1014.8
20260507155100 58 36 4.0 7.0 0.00 0.00 0.00 51 1015.0
20260507154557 58 101 0.0 3.0 0.00 0.00 0.00 51 1015.0
20260507154054 58 65 6.0 9.0 0.00 0.00 0.00 49 1015.0
20260507153551 58 30 2.0 4.0 0.00 0.00 0.00 48 1015.1
20260507153047 59 52 1.0 6.0 0.00 0.00 0.00 50 1015.1
20260507152543 58 71 3.0 8.0 0.00 0.00 0.00 47 1015.1
20260507152040 56 57 4.0 6.0 0.00 0.00 0.00 57 1015.1
20260507151536 58 79 4.0 7.0 0.00 0.00 0.00 50 1015.0
20260507151033 58 120 1.0 4.0 0.00 0.00 0.00 51 1015.0
20260507150530 57 67 2.0 4.0 0.00 0.00 0.00 56 1015.1
20260507150027 58 141 4.0 6.0 0.00 0.00 0.00 52 1015.4
20260507145521 59 126 3.0 6.0 0.00 0.00 0.00 52 1015.4
20260507145020 58 41 2.0 2.0 0.00 0.00 0.00 51 1015.3
20260507144516 56 75 3.0 3.0 0.00 0.00 0.00 53 1015.4
20260507144014 56 90 5.0 6.0 0.00 0.00 0.00 53 1015.4
20260507143511 57 84 6.0 7.0 0.00 0.00 0.00 53 1015.5
20260507143008 57 101 3.0 7.0 0.00 0.00 0.00 56 1015.5
20260507142503 57 116 3.0 7.0 0.00 0.00 0.00 57 1015.5
20260507142000 56 87 3.0 6.0 0.00 0.00 0.00 56 1015.7
20260507141456 56 57 6.0 8.0 0.00 0.00 0.00 55 1015.8
20260507140953 56 38 1.0 4.0 0.00 0.00 0.00 56 1015.7
20260507140450 56 86 5.0 8.0 0.00 0.00 0.00 58 1015.6
20260507135947 56 57 3.0 4.0 0.00 0.00 0.00 56 1015.9
20260507135444 56 98 2.0 3.0 0.00 0.00 0.00 57 1015.9
20260507134941 56 68 4.0 6.0 0.00 0.00 0.00 59 1015.9
20260507134438 56 29 1.0 3.0 0.00 0.00 0.00 56 1016.0
20260507133934 56 29 2.0 2.0 0.00 0.00 0.00 57 1016.1
20260507133430 57 67 2.0 7.0 0.00 0.00 0.00 57 1016.3
20260507132929 58 42 0.0 2.0 0.00 0.00 0.00 57 1016.3
20260507132424 56 35 1.0 2.0 0.00 0.00 0.00 57 1016.2
20260507131921 57 43 0.0 1.0 0.00 0.00 0.00 66 1016.1
20260507131418 56 40 0.0 2.0 0.00 0.00 0.00 65 1016.3
20260507130915 56 157 1.0 2.0 0.00 0.00 0.00 73 1016.1
20260507130412 56 183 0.0 1.0 0.00 0.00 0.00 73 1016.2
20260507125911 55 210 0.0 1.0 0.00 0.00 0.00 77 1016.3
20260507125409 55 107 1.0 1.0 0.00 0.00 0.00 78 1016.2
20260507124906 55 55 1.0 1.0 0.00 0.00 0.00 85 1016.2
20260507124401 53 149 0.0 0.0 0.00 0.00 0.00 94 1016.2
20260507123900 53 162 0.0 0.0 0.00 0.00 0.00 96 1016.0
20260507123357 52 86 0.0 0.0 0.00 0.00 0.00 97 1016.0
20260507122853 50 130 0.0 0.0 0.00 0.00 0.00 98 1016.5
20260507122349 49 224 0.0 0.0 0.00 0.00 0.00 98 1016.1
20260507121845 48 187 0.0 0.0 0.00 0.00 0.00 98 1016.3
20260507121341 48 152 0.0 0.0 0.00 0.00 0.00 98 1016.3
20260507120837 46 186 0.0 0.0 0.00 0.00 0.00 98 1016.3
20260507120334 46 89 0.0 0.0 0.00 0.00 0.00 98 1016.2
20260507115830 45 205 0.0 0.0 0.00 0.00 0.00 98 1016.4
20260507115326 44 162 0.0 0.0 0.00 0.00 0.00 98 1016.3
20260507114822 44 67 0.0 0.0 0.00 0.00 0.00 98 1016.2
20260507114319 43 59 0.0 0.0 0.00 0.00 0.00 98 1016.1
20260507113817 42 59 0.0 0.0 0.00 0.00 0.00 98 1016.0
20260507113313 42 59 0.0 0.0 0.00 0.00 0.00 98 1016.0
20260507112811 42 59 0.0 0.0 0.00 0.00 0.00 98 1016.2
20260507112308 41 59 0.0 0.0 0.00 0.00 0.00 98 1016.0
20260507111806 42 58 0.0 0.0 0.00 0.00 0.00 98 1016.1
20260507111302 41 58 0.0 0.0 0.00 0.00 0.00 98 1015.8
20260507110758 41 58 0.0 0.0 0.00 0.00 0.00 98 1016.1
20260507110255 41 58 0.0 0.0 0.00 0.00 0.00 98 1015.9
20260507105752 41 58 0.0 0.0 0.00 0.00 0.00 98 1015.9
20260507105247 41 58 0.0 0.0 0.00 0.00 0.00 98 1015.6
20260507104745 41 57 0.0 0.0 0.00 0.00 0.00 98 1015.7
20260507104242 41 57 0.0 0.0 0.00 0.00 0.00 98 1015.6
20260507103737 41 56 0.0 0.0 0.00 0.00 0.00 98 1015.5
20260507103234 41 57 0.0 0.0 0.00 0.00 0.00 98 1015.4
20260507102730 41 57 0.0 0.0 0.00 0.00 0.00 98 1015.3
20260507102227 41 57 0.0 0.0 0.00 0.00 0.00 98 1015.4
20260507101723 41 57 0.0 0.0 0.00 0.00 0.00 97 1015.6
20260507101219 41 57 0.0 0.0 0.00 0.00 0.00 97 1015.4
20260507100716 41 57 0.0 0.0 0.00 0.00 0.00 97 1015.4
20260507100214 41 57 0.0 0.0 0.00 0.00 0.00 97 1015.2
20260507095712 41 57 0.0 0.0 0.00 0.00 0.00 97 1015.4
20260507095208 41 57 0.0 0.0 0.00 0.00 0.00 97 1015.1
20260507094705 41 57 0.0 0.0 0.00 0.00 0.00 97 1015.3
20260507094202 41 57 0.0 0.0 0.00 0.00 0.00 97 1015.3
20260507093659 41 57 0.0 0.0 0.00 0.00 0.00 97 1015.2
20260507093158 41 57 0.0 0.0 0.00 0.00 0.00 97 1015.3
20260507092654 41 57 0.0 0.0 0.00 0.00 0.00 97 1015.4
20260507092151 41 57 0.0 0.0 0.00 0.00 0.00 97 1015.3
20260507091647 41 57 0.0 0.0 0.00 0.00 0.00 97 1015.3
20260507091144 42 57 0.0 0.0 0.00 0.00 0.00 96 1015.2
20260507090639 42 57 0.0 0.0 0.00 0.00 0.00 96 1015.1
20260507090137 42 57 0.0 0.0 0.00 0.00 0.00 96 1014.9
20260507085634 42 57 0.0 0.0 0.00 0.00 0.00 96 1015.0
20260507085130 42 57 0.0 0.0 0.00 0.00 0.00 96 1015.2
20260507084627 42 57 0.0 0.0 0.00 0.00 0.00 96 1015.4
20260507084124 43 57 0.0 0.0 0.00 0.00 0.00 95 1015.4
20260507083620 43 57 0.0 0.0 0.00 0.00 0.00 95 1015.4
20260507083118 43 57 0.0 0.0 0.00 0.00 0.00 95 1015.3
20260507082613 44 56 0.0 0.0 0.00 0.00 0.00 95 1015.7
20260507082110 44 56 0.0 0.0 0.00 0.00 0.00 95 1015.3
20260507081606 44 56 0.0 0.0 0.00 0.00 0.00 94 1015.4
20260507081103 44 56 0.0 0.0 0.00 0.00 0.00 94 1015.3
20260507080559 45 56 0.0 0.0 0.00 0.00 0.00 94 1015.4
20260507080056 45 56 0.0 0.0 0.00 0.00 0.00 93 1015.4
20260507075551 45 56 0.0 0.0 0.00 0.00 0.00 93 1015.4
20260507075047 46 56 0.0 0.0 0.00 0.00 0.00 93 1015.4
20260507074544 46 56 0.0 0.0 0.00 0.00 0.00 92 1015.2
20260507074043 47 56 0.0 0.0 0.00 0.00 0.00 92 1015.2
20260507073538 47 56 0.0 0.0 0.00 0.00 0.00 91 1015.1
20260507073035 47 56 0.0 0.0 0.00 0.00 0.00 91 1015.2
20260507072533 48 56 0.0 0.0 0.00 0.00 0.00 91 1015.4
20260507072030 48 56 0.0 0.0 0.00 0.00 0.00 91 1015.1
20260507071527 48 56 0.0 0.0 0.00 0.00 0.00 90 1015.3
20260507071024 48 56 0.0 0.0 0.00 0.00 0.00 90 1015.4
20260507070521 48 56 0.0 0.0 0.00 0.00 0.00 90 1015.3
20260507070018 49 56 0.0 0.0 0.00 0.00 0.00 90 1015.1
20260507065514 49 56 0.0 0.0 0.00 0.00 0.00 90 1015.3
20260507065011 49 56 0.0 0.0 0.00 0.00 0.00 89 1015.3
20260507064509 49 56 0.0 0.0 0.00 0.00 0.00 89 1015.1
20260507064008 49 56 0.0 0.0 0.00 0.00 0.00 89 1015.3
20260507063504 49 56 0.0 0.0 0.00 0.00 0.00 88 1015.6